Regional Weather Roundup
Issued by NWS

Home | Current Version | Previous Version | Text Only | Print | Product List | Glossary Off
Versions: 1 2 3 4 5 6 7 8 9 10 11 12 13 14 15 16 17 18 19 20 21 22 23 24 25 26 27 28 29 30 31 32 33 34 35 36 37 38 39 40 41 42 43 44 45 46 47 48 49 50

438
ASUS43 KFSD 300602
RWRSD

WEATHER ROUNDUP FOR SOUTH DAKOTA
NATIONAL WEATHER SERVICE SIOUX FALLS SD
100 AM CDT THU MAR 30 2017

NOTE: "FAIR" INDICATES FEW OR NO CLOUDS BELOW 12,000 FEET WITH NO
SIGNIFICANT WEATHER AND/OR OBSTRUCTIONS TO VISIBILITY.


SDZ001>005-009-010-012>017-300700-
NORTHWEST AND NORTH CENTRAL SOUTH DAKOTA

CITY           SKY/WX    TMP DP  RH WIND       PRES   REMARKS
BUFFALO          N/A     43  38  82 S14       29.79F
FAITH            N/A     39  36  89 MISG      29.92S
MOBRIDGE       CLEAR     39  31  72 SE12      29.94F
$$

SDZ012>016-024>037-041>051-057-063-072>074-300700-
SOUTHWEST AND SOUTH CENTRAL SOUTH DAKOTA

CITY           SKY/WX    TMP DP  RH WIND       PRES   REMARKS
RAPID CTY ARPT CLEAR     37  34  89 SE7       29.91F
PIERRE         CLEAR     36  33  89 SE9       29.96F
CUSTER         PTCLDY    33  31  92 CALM      29.91F FOG
ELLSWORTH AFB  CLEAR     40  39  97 CALM      29.90F
PHILIP         CLEAR     36  34  92 CALM      29.95F
PINE RIDGE     CLEAR     39  37  92 E6        29.91F
SPEARFISH      FAIR      43  36  75 CALM      29.87F
WINNER         CLOUDY    41  37  86 E7        29.96F
$$

SDZ004>011-016>023-039-040-300700-
NORTHEAST SOUTH DAKOTA

CITY           SKY/WX    TMP DP  RH WIND       PRES   REMARKS
ABERDEEN       MOCLDY    37  32  82 E7        30.03S
WATERTOWN      CLOUDY    38  37  97 E8        30.00F
BROOKINGS      CLOUDY    38  35  89 E10       29.97F
SISSETON         N/A     41  38  89 S12       30.03F
$$

SDZ017-020-022-023-036>040-048>070-300700-
SOUTHEAST SOUTH DAKOTA

CITY           SKY/WX    TMP DP  RH WIND       PRES   REMARKS
SIOUX FALLS    CLOUDY    38  38 100 NE14      29.94F
HURON          CLOUDY    41  38  89 E7        29.99F
CHAMBERLAIN    CLOUDY    41  39  91 E5        29.98F
MITCHELL       CLOUDY    41  36  82 NE7       29.98F
YANKTON        CLOUDY    37  36  93 NE13      29.92F
$$

ABBREVIATIONS USED IN REMARKS
   TC - TEMPERATURE IN CELSIUS
  WCI - WIND CHILL INDEX
   HX - HEAT INDEX
  VSB - VISIBILITY





USA.gov is the U.S. government's official web portal to all federal, state and local government web resources and services.